Location: Brno
(49.2000°N, 16.6330°E)
Time: 04:10:52
(UTC+02:00)

Vanguard 3 - Pass Details

Date: 05 August 2021
Orbit: 510 x 3260 km, 33.3° (Epoch: 16 September)

Event Time Altitude Azimuth Distance (km) Brightness Sun altitude
Rises 17:19:14 0° 222° (SW) 4,869 11.8 28.9°
Reaches altitude 10° 17:22:22 10° 213° (SSW) 4,229 11.5 28.4°
Maximum altitude 17:33:03 35° 154° (SSE) 3,582 10.5 26.7°
Drops below altitude 10° 17:48:23 10° 98° (E) 6,074 11.1 24.2°
Sets 17:54:02 0° 92° (E) 7,214 11.4 23.3°
